Overview Statistics Trail Chart Weather Telemetry Raw packets
 

This is the latest recevied weather packets stored in our database for station/object W8LMG. If no packets are shown the sender has not sent any weather packets the latest 10 day(s).

<< 6 7 8 9 10 11 12 >>
Time Temp. Humidity Pressure Rain* Wind** Luminosity Snow
1788567578 20° C 99% 1017.7 hPa 0 mm - 0 W/m² -
1788567273 20° C 99% 1017.7 hPa 0 mm - 0 W/m² -
1788566973 20° C 99% 1017.7 hPa 0 mm - 0 W/m² -
1788566669 20° C 99% 1017.7 hPa 0 mm - 0 W/m² -
1788566364 20.56° C 99% 1017.8 hPa 0 mm - 0 W/m² -
1788566060 20.56° C 99% 1017.9 hPa 0 mm - 1 W/m² -
1788565754 20.56° C 99% 1017.8 hPa 0 mm - 2 W/m² -
1788565454 20.56° C 99% 1017.8 hPa 0 mm - 2 W/m² -
1788565149 20.56° C 99% 1017.9 hPa 0 mm - 4 W/m² -
1788564845 20.56° C 99% 1017.8 hPa 0 mm - 7 W/m² -
1788564541 20.56° C 99% 1017.9 hPa 0 mm - 7 W/m² -
1788564238 20.56° C 98% 1017.8 hPa 0 mm - 13 W/m² -
1788563933 20.56° C 98% 1018 hPa 0 mm - 16 W/m² -
1788563628 20.56° C 98% 1018 hPa 0 mm - 17 W/m² -
1788563323 21.11° C 98% 1018 hPa 0 mm - 16 W/m² -
1788563022 21.11° C 98% 1018.3 hPa 0 mm - 16 W/m² -
1788562718 21.11° C 97% 1018.4 hPa 0 mm - 18 W/m² -
1788562416 21.11° C 98% 1018.5 hPa 0 mm - 23 W/m² -
1788562124 21.11° C 97% 1018.6 hPa 0 mm - 22 W/m² -
1788561811 21.11° C 96% 1018.5 hPa 0 mm - 23 W/m² -
1788561505 21.11° C 96% 1018.7 hPa 0 mm - 25 W/m² -
1788561205 21.11° C 96% 1018.6 hPa 0 mm - 28 W/m² -
1788560901 21.11° C 96% 1018.5 hPa 0 mm - 30 W/m² -
1788560601 21.11° C 97% 1018.3 hPa 0 mm - 33 W/m² -
1788560302 21.11° C 97% 1018.6 hPa 0 mm - 34 W/m² -

* Rain latest hour (hover to see other rain measurements)
** Current wind speed in m/s (hover to see current wind gust speed)